User: anonymous   Login
Location: Unspecified
(0.0000°N, 0.0000°E)
Time: 22:30:22
(UTC+00:00)
Language:

APRIZESAT 6 - Orbit

View from above orbital plane
View from above orbital plane
View from above satellite
View from above satellite

Ground track
Ground track

The orbit data is extracted from the following two-line orbital elements,

1 37793U 11044F   18175.37964406  .00000060  00000-0  18059-4 0  9993
2 37793  98.3397 317.1539 0046426 336.3221  76.1262 14.72316386368036
Epoch (UTC): 24 June 2018 09:06:41
Eccentricity: 0.0046426
inclination: 98.3397°
perigee height: 621 km
apogee height: 686 km
right ascension of ascending node: 317.1539°
argument of perigee: 336.3221°
revolutions per day: 14.72316386
mean anomaly at epoch: 76.1262°
orbit number at epoch: 36803

The dashed part of the orbit path shows where the satellite is in the earth's shadow,  

DLR